GW4549 Weather Reports


Display with metric or nautical units.
time (UTC)temp
F
wind
direction
speed
MPH
gust
MPH
rain 1hr
in
rain 24hr
in
rain mn
in
humidity
%
barometer
mb
20260507160509 55 75 2.0 8.0 0.28 1.31 1.31 93 1011.9
20260507160022 55 96 3.0 8.0 0.29 1.29 1.29 93 1011.6
20260507155513 55 326 1.0 8.0 0.28 1.26 1.26 93 1011.6
20260507155003 55 52 2.0 11.0 0.27 1.24 1.24 93 1011.5
20260507154506 55 82 4.0 13.0 0.27 1.23 1.23 92 1011.2
20260507154008 54 138 4.0 13.0 0.27 1.22 1.22 92 1010.6
20260507153505 55 107 2.0 8.0 0.26 1.21 1.21 1011.1
20260507153029 54 104 4.0 9.0 0.24 1.19 1.19 92 1011.7
20260507152506 54 103 3.0 9.0 0.23 1.16 1.16 92 1011.7
20260507152009 54 14 2.0 13.0 0.19 1.13 1.13 92 1011.8
20260507151524 54 348 2.0 13.0 0.17 1.10 1.10 91 1011.9
20260507151004 54 115 3.0 11.0 0.13 1.05 1.05 91 1012.1
20260507150504 55 108 3.0 10.0 0.10 1.03 1.03 91 1012.2
20260507150011 55 308 2.0 11.0 0.07 1.00 1.00 91 1012.2
20260507145508 55 86 4.0 12.0 0.05 0.98 0.98 91 1012.1
20260507145010 55 52 2.0 12.0 0.04 0.97 0.97 91 1011.9
20260507144520 56 360 2.0 14.0 0.03 0.96 0.96 90 1011.7
20260507144010 56 352 4.0 14.0 0.02 0.95 0.95 91 1011.7
20260507143510 57 20 2.0 9.0 0.02 0.95 0.95 91 1011.7
20260507143027 57 84 1.0 16.0 0.02 0.95 0.95 91 1011.6
20260507142504 57 330 3.0 16.0 0.01 0.94 0.94 91 1011.5
20260507142009 57 87 4.0 16.0 0.01 0.94 0.94 91 1011.4
20260507141516 58 72 3.0 8.0 0.00 0.93 0.93 91 1011.4
20260507141008 58 101 1.0 10.0 0.00 0.93 0.93 92 1011.3
20260507140507 58 63 2.0 12.0 0.00 0.93 0.93 92 1011.3
20260507140023 59 73 4.0 12.0 0.00 0.93 0.93 92 1011.2
20260507135507 59 96 4.0 10.0 0.01 0.93 0.93 93 1011.2
20260507135011 59 82 3.0 8.0 0.03 0.93 0.93 92 1011.2
20260507134507 59 328 1.0 7.0 0.03 0.93 0.93 92 1011.1
20260507134004 58 352 1.0 10.0 0.04 0.93 0.93 92 1011.0
20260507133508 59 81 2.0 10.0 0.04 0.93 0.93 92 1011.0
20260507133019 59 60 3.0 8.0 0.04 0.93 0.93 92 1011.0
20260507132510 59 344 2.0 8.0 0.04 0.93 0.93 92 1010.9
20260507132010 59 33 1.0 8.0 0.05 0.93 0.93 92 1010.9
20260507131528 59 336 2.0 6.0 0.05 0.93 0.93 92 1010.9
20260507131010 59 62 1.0 6.0 0.06 0.93 0.93 92 1010.9
20260507130506 59 344 2.0 6.0 0.08 0.93 0.93 93 1011.0
20260507130022 59 16 2.0 9.0 0.09 0.93 0.93 92 1011.2
20260507125508 59 360 1.0 13.0 0.08 0.92 0.92 92 1011.3
20260507125008 59 333 2.0 13.0 0.07 0.90 0.90 92 1011.5
20260507124528 59 10 1.0 11.0 0.08 0.90 0.90 92 1011.3
20260507124010 59 11 3.0 11.0 0.11 0.89 0.89 92 1011.2
20260507123511 59 15 3.0 10.0 0.12 0.89 0.89 92 1011.2
20260507123027 59 344 3.0 10.0 0.13 0.89 0.89 92 1011.2
20260507122504 59 67 2.0 8.0 0.14 0.89 0.89 92 1011.2
20260507122006 59 18 2.0 12.0 0.15 0.88 0.88 92 1011.2
20260507121516 59 9 2.0 12.0 0.17 0.88 0.88 92 1011.3
20260507121007 59 338 3.0 11.0 0.16 0.87 0.87 92 1011.3
20260507120511 59 348 2.0 11.0 0.15 0.85 0.85 92 1011.3
20260507120024 59 5 2.0 11.0 0.15 0.84 0.84 92 1011.5
20260507115509 59 345 3.0 13.0 0.16 0.84 0.84 92 1011.5
20260507115011 60 29 5.0 13.0 0.15 0.83 0.83 92 1011.3
20260507114512 60 65 5.0 10.0 0.16 0.82 0.82 92 1011.2
20260507114014 61 360 2.0 16.0 0.12 0.78 0.78 92 1011.1
20260507113507 61 360 5.0 16.0 0.13 0.77 0.77 91 1011.1
20260507113019 63 9 3.0 13.0 0.15 0.76 0.76 91 1010.8
20260507112508 65 321 4.0 7.0 0.22 0.75 0.75 93 1010.6
20260507112010 65 294 0.0 4.0 0.27 0.73 0.73 93 1010.4
20260507111527 65 242 2.0 4.0 0.29 0.71 0.71 93 1010.7
20260507111010 65 257 1.0 4.0 0.35 0.71 0.71 93 1010.5
20260507110506 65 270 2.0 4.0 0.39 0.70 0.70 92 1010.3
20260507110015 65 237 1.0 2.0 0.51 0.69 0.69 92 1010.3
20260507105508 65 189 1.0 4.0 0.63 0.68 0.68 92 1010.3
20260507105006 65 293 2.0 6.0 0.65 0.68 0.68 92 1010.2
20260507104522 65 263 3.0 6.0 0.64 0.66 0.66 92 1010.2
20260507104010 65 290 3.0 7.0 0.64 0.66 0.66 92 1010.2
20260507103510 65 309 1.0 7.0 0.62 0.64 0.64 92 1010.0
20260507103030 65 216 1.0 7.0 0.58 0.61 0.61 92 1010.0
20260507102510 65 257 2.0 7.0 0.51 0.52 0.52 92 1010.1
20260507102007 65 236 2.0 7.0 0.44 0.46 0.46 91 1010.0
20260507101518 66 256 1.0 3.0 0.40 0.42 0.42 91 1009.8
20260507101008 66 302 1.0 4.0 0.34 0.36 0.36 91 1009.9
20260507100508 66 323 1.0 6.0 0.30 0.31 0.31 90 1009.9
20260507100033 66 342 2.0 6.0 0.17 0.18 0.18 89 1009.9
20260507095509 66 295 1.0 6.0 0.04 0.05 0.05 89 1009.5
20260507095014 66 242 2.0 6.0 0.02 0.03 0.03 89 1009.4
20260507094529 66 216 1.0 3.0 0.01 0.02 0.02 89 1009.1
20260507094007 66 192 0.0 2.0 0.01 0.02 0.02 88 1009.0
20260507093507 66 205 1.0 4.0 0.01 0.02 0.02 88 1009.1
20260507093022 66 259 0.0 5.0 0.01 0.02 0.02 88 1009.1
20260507092513 66 181 0.0 8.0 0.01 0.02 0.02 87 1009.1
20260507092011 67 238 3.0 8.0 0.01 0.02 0.02 87 1009.2
20260507091529 67 288 2.0 12.0 0.01 0.02 0.02 86 1009.3
20260507091007 67 252 2.0 12.0 0.01 0.02 0.02 85 1009.1
20260507090514 68 193 4.0 11.0 0.00 0.01 0.01 83 1009.4
20260507090022 68 279 5.0 11.0 0.00 0.01 0.01 82 1009.4
20260507085509 68 222 3.0 10.0 0.00 0.01 0.01 82 1009.3
20260507085009 68 155 4.0 10.0 0.00 0.01 0.01 82 1009.4
20260507084523 68 188 5.0 14.0 0.00 0.01 0.01 81 1009.5
20260507084008 68 234 5.0 14.0 0.00 0.01 0.01 81 1009.5
20260507083513 68 303 7.0 13.0 0.00 0.01 0.01 81 1009.6
20260507083030 68 230 4.0 11.0 0.00 0.01 0.01 81 1009.6
20260507082503 68 230 3.0 9.0 0.00 0.01 0.01 81 1009.5
20260507082003 68 259 4.0 12.0 0.00 0.01 0.01 81 1009.6
20260507081507 68 198 3.0 12.0 0.00 0.01 0.01 80 1009.7
20260507081003 68 257 5.0 13.0 0.00 0.01 0.01 80 1009.8
20260507080504 68 241 4.0 13.0 0.00 0.01 0.01 80 1009.8
20260507080005 68 227 3.0 8.0 0.00 0.01 0.01 81 1010.0
20260507075503 68 207 3.0 8.0 0.00 0.01 0.01 80 1010.0
20260507075006 68 250 4.0 10.0 0.00 0.01 0.01 80 1010.2
20260507074511 68 261 4.0 10.0 0.00 0.01 0.01 80 1010.3
20260507074007 68 209 4.0 7.0 0.00 0.01 0.01 81 1010.2
20260507073507 68 280 3.0 7.0 0.00 0.01 0.01 81 1010.1
20260507073013 68 199 3.0 10.0 0.01 0.01 0.01 81 1010.0
20260507072504 68 223 3.0 10.0 0.01 0.01 0.01 82 1010.0
20260507072008 68 227 5.0 10.0 0.01 0.01 0.01 82 1010.0
20260507071534 68 263 4.0 7.0 0.01 0.01 0.01 82 1010.0
20260507071006 68 181 1.0 9.0 0.01 0.01 0.01 82 1009.9
20260507070509 67 250 2.0 9.0 0.01 0.01 0.01 82 1009.9
20260507070014 67 251 2.0 10.0 0.01 0.01 0.01 83 1009.9
20260507065506 67 281 4.0 10.0 0.01 0.01 0.01 83 1009.8
20260507065006 67 202 1.0 7.0 0.01 0.01 0.01 83 1009.7
20260507064508 67 250 3.0 7.0 0.01 0.01 0.01 83 1009.6
20260507064005 67 189 1.0 7.0 0.01 0.01 0.01 83 1009.5
20260507063506 67 246 2.0 6.0 0.01 0.01 0.01 82 1009.4
20260507063015 68 240 1.0 5.0 0.00 0.00 0.00 80 1009.3
20260507062511 68 147 2.0 5.0 0.00 0.00 0.00 80 1009.5
20260507062007 68 226 2.0 9.0 0.00 0.00 0.00 80 1009.9
20260507061517 68 173 2.0 9.0 0.00 0.00 0.00 80 1010.1
20260507061007 68 207 3.0 8.0 0.00 0.00 0.00 80 1010.6
20260507060503 68 198 3.0 8.0 0.00 0.00 0.00 80 1010.9
20260507060008 68 192 2.0 7.0 0.00 0.00 0.00 80 1011.0
20260507055506 68 284 2.0 7.0 0.00 0.00 0.00 79 1011.0
20260507055009 68 257 4.0 9.0 0.00 0.00 0.00 79 1011.0
20260507054516 69 246 4.0 9.0 0.00 0.00 0.00 78 1011.1
20260507054009 69 234 4.0 7.0 0.00 0.00 0.00 77 1011.1
20260507053506 69 267 2.0 9.0 0.00 0.00 0.00 77 1011.1
20260507053015 69 221 2.0 9.0 0.00 0.00 0.00 77 1011.2
20260507052507 69 244 3.0 7.0 0.00 0.00 0.00 76 1011.2
20260507052004 69 267 1.0 9.0 0.00 0.00 0.00 76 1011.2
20260507051527 69 224 5.0 11.0 0.00 0.00 0.00 75 1011.3
20260507051009 69 250 4.0 11.0 0.00 0.00 0.00 75 1011.3
20260507050507 70 197 2.0 8.0 0.00 0.00 0.00 75 1011.2
20260507050022 70 238 3.0 7.0 0.00 0.00 0.00 74 1011.0
20260507045510 70 182 2.0 7.0 0.00 0.00 0.00 72 1010.9
20260507045007 70 240 1.0 5.0 0.00 0.00 0.00 71 1010.8
20260507044508 70 217 2.0 4.0 0.00 0.00 0.00 71 1010.9
20260507044007 70 205 1.0 6.0 0.00 0.00 0.00 71 1010.8
20260507043506 70 229 0.0 6.0 0.00 0.00 0.00 71 1010.9
20260507043018 70 174 2.0 5.0 0.00 0.00 0.00 71 1011.1
20260507042506 70 284 0.0 6.0 0.00 0.00 0.00 71 1011.1
20260507042007 70 234 3.0 6.0 0.00 0.00 0.00 71 1011.1
20260507041518 70 209 3.0 6.0 0.00 0.00 0.00 71 1011.1
20260507041007 71 157 1.0 7.0 0.00 0.00 0.00 70 1011.0
20260507040507 71 186 1.0 7.0 0.00 0.00 0.00 70 1010.8
20260507040014 71 220 3.0 7.0 0.00 0.00 0.00 70 1010.9
20260507035504 70 223 3.0 6.0 0.00 0.00 0.00 71 1011.0
20260507035005 70 225 1.0 6.0 0.00 0.00 0.00 71 1010.8
20260507034531 70 206 1.0 6.0 0.00 0.00 0.00 71 1010.6
20260507034007 70 143 0.0 3.0 0.00 0.00 0.00 71 1010.2
20260507033508 70 213 0.0 3.0 0.00 0.00 0.00 70 1010.4
20260507033033 70 239 1.0 3.0 0.00 0.00 0.00 70 1010.6
20260507032509 70 213 1.0 4.0 0.00 0.00 0.00 71 1010.4
20260507032010 70 231 2.0 4.0 0.00 0.00 0.00 71 1010.4
20260507031518 70 187 0.0 3.0 0.00 0.00 0.00 70 1010.3
20260507031008 70 246 0.0 3.0 0.00 0.00 0.00 70 1010.6
20260507030506 71 226 1.0 3.0 0.00 0.00 0.00 69 1010.8
20260507030026 71 252 1.0 3.0 0.00 0.00 0.00 69 1011.0
20260507025509 71 208 1.0 3.0 0.00 0.00 0.00 69 1011.1
20260507025010 71 247 1.0 4.0 0.00 0.00 0.00 69 1011.1
20260507024522 71 242 1.0 5.0 0.00 0.00 0.00 69 1011.1
20260507024006 71 186 1.0 5.0 0.00 0.00 0.00 69 1011.2
20260507023505 71 142 0.0 5.0 0.00 0.00 0.00 69 1011.3
20260507023027 71 206 1.0 4.0 0.00 0.00 0.00 69 1011.3
20260507022507 71 161 1.0 3.0 0.00 0.00 0.00 69 1011.2
20260507022007 71 162 1.0 3.0 0.00 0.00 0.00 69 1011.2
20260507021523 71 170 0.0 4.0 0.00 0.00 0.00 69 1011.2
20260507021010 70 138 1.0 4.0 0.00 0.00 0.00 69 1011.1
20260507020507 71 175 1.0 5.0 0.00 0.00 0.00 68 1011.2
20260507020018 71 203 1.0 4.0 0.00 0.00 0.00 68 1011.3
20260507015506 71 200 1.0 3.0 0.00 0.00 0.00 68 1011.3
20260507015012 71 216 0.0 3.0 0.00 0.00 0.00 67 1011.3
20260507014521 71 176 1.0 3.0 0.00 0.00 0.00 67 1011.3
20260507014008 71 190 0.0 3.0 0.00 0.00 0.00 66 1011.2
20260507013508 72 192 2.0 3.0 0.00 0.00 0.00 66 1011.1
20260507013024 72 265 2.0 3.0 0.00 0.00 0.00 66 1011.0
20260507012509 72 167 1.0 3.0 0.00 0.00 0.00 66 1010.9
20260507012012 72 187 0.0 5.0 0.00 0.00 0.00 65 1011.1
20260507011520 72 211 0.0 5.0 0.00 0.00 0.00 64 1011.0
20260507011009 73 226 2.0 6.0 0.00 0.00 0.00 64 1011.1
20260507010508 73 211 1.0 7.0 0.00 0.00 0.00 63 1011.0
20260507010025 73 243 2.0 7.0 0.00 0.00 0.00 62 1011.1
20260507005510 73 226 2.0 5.0 0.00 0.00 0.00 62 1011.2
20260507005010 74 239 3.0 5.0 0.00 0.00 0.00 61 1011.2
20260507004514 74 232 2.0 5.0 0.00 0.00 0.00 61 1011.1
20260507004007 74 220 2.0 5.0 0.00 0.00 0.00 61 1011.1
20260507003510 74 227 2.0 8.0 0.00 0.00 0.00 61 1010.9
20260507003022 74 192 3.0 8.0 0.00 0.00 0.00 60 1010.8
20260507002503 74 223 1.0 5.0 0.00 0.00 0.00 60 1010.9
20260507002002 75 229 1.0 6.0 0.00 0.00 0.00 59 1010.9
20260507001511 75 207 2.0 6.0 0.00 0.00 0.00 59 1010.8
20260507001006 75 241 3.0 6.0 0.00 0.00 0.00 59 1010.8
20260507000507 75 252 3.0 9.0 0.00 0.00 0.00 58 1010.6
20260507000018 75 277 4.0 9.0 0.00 0.00 0.00 58 1010.6
20260506235507 75 259 3.0 10.0 0.00 0.00 0.00 58 1010.6
20260506235009 76 236 3.0 9.0 0.00 0.00 0.00 57 1010.6
20260506234506 76 265 4.0 8.0 0.00 0.00 0.00 57 1010.6
20260506234005 76 261 3.0 8.0 0.00 0.00 0.00 57 1010.4
20260506233506 76 223 3.0 9.0 0.00 0.00 0.00 56 1010.4
20260506233014 76 271 4.0 9.0 0.00 0.00 0.00 56 1010.2
20260506232507 76 227 4.0 9.0 0.00 0.00 0.00 56 1010.1
20260506232006 76 243 2.0 11.0 0.00 0.00 0.00 56 1010.1
20260506231523 77 278 7.0 11.0 0.00 0.00 0.00 56 1010.0
20260506231007 77 226 2.0 9.0 0.00 0.00 0.00 56 1010.0
20260506230502 77 224 3.0 9.0 0.00 0.00 0.00 56 1010.1
20260506230007 77 186 2.0 9.0 0.00 0.00 0.00 56 1010.0
20260506225507 77 195 3.0 9.0 0.00 0.00 0.00 56 1010.0
20260506225006 77 211 3.0 10.0 0.00 0.00 0.00 56 1009.9
20260506224517 77 226 5.0 10.0 0.00 0.00 0.00 56 1010.0
20260506224009 77 211 4.0 10.0 0.00 0.00 0.00 56 1010.1
20260506223513 77 257 3.0 10.0 0.00 0.00 0.00 56 1010.2
20260506223023 78 210 3.0 10.0 0.00 0.00 0.00 56 1010.1
20260506222503 78 239 4.0 9.0 0.00 0.00 0.00 56 1010.1
20260506222008 78 234 3.0 17.0 0.00 0.00 0.00 56 1010.1
20260506221512 78 227 3.0 17.0 0.00 0.00 0.00 56 1010.1
20260506221005 78 276 4.0 16.0 0.00 0.00 0.00 56 1010.1
20260506220508 78 185 5.0 16.0 0.00 0.00 0.00 56 1010.1
20260506220031 78 209 5.0 16.0 0.00 0.00 0.00 56 1010.1
20260506215509 78 168 4.0 12.0 0.00 0.00 0.00 56 1009.9
20260506215009 78 165 4.0 14.0 0.00 0.00 0.00 56 1009.8
20260506214507 78 221 5.0 14.0 0.00 0.00 0.00 56 1009.9
20260506214004 78 184 6.0 12.0 0.00 0.00 0.00 56 1010.0
20260506213506 78 190 6.0 14.0 0.00 0.00 0.00 55 1010.0
20260506213016 78 237 7.0 14.0 0.00 0.00 0.00 55 1010.0
20260506212506 78 197 5.0 14.0 0.00 0.00 0.00 55 1010.0
20260506212008 78 240 3.0 16.0 0.00 0.00 0.00 55 1009.9
20260506211523 78 155 6.0 16.0 0.00 0.00 0.00 54 1009.7
20260506211010 78 207 5.0 15.0 0.00 0.00 0.00 54 1009.7
20260506210503 78 169 4.0 15.0 0.00 0.00 0.00 54 1009.8
20260506210013 78 243 6.0 14.0 0.00 0.00 0.00 55 1010.0
20260506205508 78 315 4.0 14.0 0.00 0.00 0.00 56 1010.0
20260506205007 78 174 4.0 16.0 0.00 0.00 0.00 55 1010.1
20260506204520 78 305 4.0 16.0 0.00 0.00 0.00 56 1010.1
20260506204012 78 233 2.0 10.0 0.00 0.00 0.00 56 1010.1
20260506203507 78 202 3.0 16.0 0.00 0.00 0.00 55 1010.2
20260506203029 78 173 4.0 16.0 0.00 0.00 0.00 54 1010.4
20260506202511 78 216 7.0 13.0 0.00 0.00 0.00 54 1010.5
20260506202012 78 140 4.0 14.0 0.00 0.00 0.00 54 1010.6
20260506201512 78 326 6.0 17.0 0.00 0.00 0.00 55 1010.6
20260506201007 78 201 5.0 18.0 0.00 0.00 0.00 56 1010.8
20260506200506 78 217 7.0 18.0 0.00 0.00 0.00 58 1010.8
20260506200023 78 252 7.0 19.0 0.00 0.00 0.00 58 1011.0
20260506195509 78 161 6.0 19.0 0.00 0.00 0.00 58 1011.2
20260506195011 78 247 6.0 15.0 0.00 0.00 0.00 58 1011.2
20260506194527 78 198 6.0 15.0 0.00 0.00 0.00 58 1011.4
20260506194006 78 265 7.0 20.0 0.00 0.00 0.00 58 1011.5
20260506193509 78 200 5.0 20.0 0.00 0.00 0.00 57 1011.6
20260506193018 78 221 6.0 15.0 0.00 0.00 0.00 58 1011.7
20260506192507 79 246 5.0 13.0 0.00 0.00 0.00 58 1011.7
20260506192012 79 182 5.0 13.0 0.00 0.00 0.00 58 1011.7
20260506191524 78 241 6.0 14.0 0.00 0.00 0.00 59 1011.8
20260506191010 78 220 6.0 14.0 0.00 0.00 0.00 59 1011.8
20260506190515 77 244 5.0 15.0 0.00 0.00 0.00 60 1011.7
20260506190020 77 265 3.0 14.0 0.00 0.00 0.00 60 1011.8
20260506185508 76 238 5.0 14.0 0.00 0.00 0.00 60 1011.9
20260506185011 76 212 5.0 14.0 0.00 0.00 0.00 60 1012.0
20260506184523 76 202 5.0 17.0 0.00 0.00 0.00 59 1012.0
20260506184013 77 236 7.0 17.0 0.00 0.00 0.00 59 1012.0
20260506183509 77 116 3.0 18.0 0.00 0.00 0.00 59 1012.0
20260506183028 77 185 8.0 22.0 0.00 0.00 0.00 59 1012.1
20260506182507 77 163 7.0 22.0 0.00 0.00 0.00 59 1012.2
20260506182006 77 159 7.0 21.0 0.00 0.00 0.00 59 1012.3
20260506181520 77 252 7.0 14.0 0.00 0.00 0.00 59 1012.3
20260506181008 76 106 5.0 20.0 0.00 0.00 0.00 59 1012.4
20260506180510 76 250 5.0 20.0 0.00 0.00 0.00 59 1012.5
20260506180025 76 142 8.0 15.0 0.00 0.00 0.00 60 1012.7
20260506175513 76 229 5.0 15.0 0.00 0.00 0.00 59 1012.7
20260506175017 77 284 6.0 15.0 0.00 0.00 0.00 58 1012.8
20260506174527 77 231 4.0 16.0 0.00 0.00 0.00 58 1013.0
20260506174004 77 232 4.0 16.0 0.00 0.00 0.00 58 1013.2
20260506173511 76 171 2.0 16.0 0.00 0.00 0.00 59 1013.3
20260506173022 76 218 4.0 16.0 0.00 0.00 0.00 60 1013.3
20260506172506 75 219 4.0 14.0 0.00 0.00 0.00 61 1013.2
20260506172009 75 180 5.0 15.0 0.00 0.00 0.00 62 1013.5
20260506171525 74 227 3.0 15.0 0.00 0.00 0.00 63 1013.7
20260506171009 74 254 5.0 18.0 0.00 0.00 0.00 63 1013.6
20260506170510 74 165 5.0 18.0 0.00 0.00 0.00 63 1013.6
20260506170016 74 158 4.0 17.0 0.00 0.00 0.00 62 1013.7
20260506165511 74 196 5.0 13.0 0.00 0.00 0.00 63 1013.6
20260506165009 74 279 8.0 15.0 0.00 0.00 0.00 63 1013.7
20260506164527 74 209 3.0 21.0 0.00 0.00 0.00 64 1013.7
20260506164009 73 304 6.0 21.0 0.00 0.00 0.00 64 1013.7
20260506163511 73 193 4.0 12.0 0.00 0.00 0.00 65 1013.7
20260506163026 72 193 3.0 12.0 0.00 0.00 0.00 66 1013.7
20260506162507 72 212 7.0 12.0 0.00 0.00 0.00 66 1013.8
20260506162008 72 241 5.0 12.0 0.00 0.00 0.00 65 1013.9
20260506161517 73 114 2.0 16.0 0.00 0.00 0.00 66 1014.0
20260506161008 72 140 5.0 24.0 0.00 0.00 0.00 67 1014.1